Location: Keppel Henge
(44.7900°N, 80.9447°W)
Time: 20:48:16
(UTC-05:00)

Vanguard 3 - All Passes

Search period start: 19 February 2018 00:00
Search period end: 01 March 2018 00:00
Orbit: 508 x 3264 km, 33.3° (Epoch: 19 February)

Date Brightness Start Highest point End Pass type
(mag) Time Alt. Az. Time Alt. Az. Time Alt. Az.
19 Feb - 16:26:26 10° SSW 16:28:13 13° S 16:29:54 10° SE daylight
19 Feb - 18:36:38 10° SW 18:38:54 16° S 18:41:21 10° SE visible
20 Feb - 15:14:08 10° S 15:14:58 10° SSE 15:15:45 10° SSE daylight
20 Feb - 17:23:26 10° SW 17:25:47 16° S 17:28:05 10° SE daylight
20 Feb - 19:34:58 10° SW 19:36:30 12° S 19:38:09 10° SSE visible
21 Feb - 16:10:01 10° SSW 16:12:38 15° S 16:14:56 10° SE daylight
21 Feb - 18:21:18 10° SW 18:23:20 14° S 18:25:24 10° SSE daylight
22 Feb - 14:56:30 10° SSW 14:59:22 14° S 15:01:46 10° SE daylight
22 Feb - 17:07:36 10° SW 17:10:13 16° S 17:12:38 10° SE daylight
23 Feb - 13:43:07 10° S 13:45:54 13° SSE 13:48:15 10° SE daylight
23 Feb - 15:53:40 10° SW 15:57:04 18° S 15:59:51 10° SE daylight
23 Feb - 18:05:56 10° SW 18:07:44 13° SSW 18:09:29 10° SSE daylight
24 Feb - 12:31:09 10° SSE 12:32:10 10° SSE 12:33:09 10° SSE daylight
24 Feb - 14:39:31 10° SW 14:43:46 18° S 14:47:01 10° SE daylight
24 Feb - 16:51:41 10° SW 16:54:38 17° S 16:57:12 10° SE daylight
25 Feb - 13:25:19 10° SSW 13:30:14 17° SSE 13:33:56 10° SE daylight
25 Feb - 15:37:17 10° SW 15:41:29 21° S 15:44:43 10° SE daylight
25 Feb - 17:50:32 10° SW 17:52:05 12° SSW 17:53:34 10° S daylight
26 Feb - 12:11:27 10° SSW 12:16:25 15° SSE 12:20:18 10° SE daylight
26 Feb - 14:22:38 10° SW 14:28:09 23° S 14:32:03 10° SE daylight
26 Feb - 16:35:41 10° WSW 16:39:02 18° SSW 16:41:49 10° SSE daylight
27 Feb - 10:58:52 10° S 11:02:18 12° SSE 11:05:16 10° SE daylight
27 Feb - 13:07:50 10° SW 13:14:33 22° S 13:19:10 10° ESE daylight
27 Feb - 15:20:51 10° WSW 15:25:53 24° S 15:29:31 10° SE daylight
27 Feb - 17:35:05 10° SW 17:36:24 11° SSW 17:37:39 10° S daylight
28 Feb - 11:53:12 10° SSW 12:00:36 20° SSE 12:05:51 10° ESE daylight
28 Feb - 14:05:45 10° SW 14:12:30 27° S 14:16:58 10° ESE daylight
28 Feb - 16:19:33 10° WSW 16:23:23 19° SSW 16:26:25 10° SSE daylight
